Location: Quesnel
(52.9830°N, 122.4830°W)
Time: 03:34:37
(UTC-07:00)

ISS - All Passes

Search period start: 28 June 2017 00:00
Search period end: 08 July 2017 00:00
Orbit: 401 x 408 km, 51.6° (Epoch: 28 June)

Date Brightness Start Highest point End Pass type
(mag) Time Alt. Az. Time Alt. Az. Time Alt. Az.
28 Jun - 07:54:27 10° SE 07:54:54 10° SE 07:55:20 10° SE daylight
28 Jun - 09:27:37 10° SW 09:30:40 36° SSE 09:33:44 10° E daylight
28 Jun - 11:03:39 10° W 11:06:56 70° S 11:10:14 10° E daylight
28 Jun - 12:40:04 10° W 12:43:17 50° SSW 12:46:30 10° ESE daylight
28 Jun - 14:17:01 10° WSW 14:19:17 17° SW 14:21:31 10° S daylight
29 Jun - 08:35:48 10° SSW 08:38:35 26° SSE 08:41:23 10° E daylight
29 Jun - 10:11:29 10° WSW 10:14:45 63° S 10:18:01 10° E daylight
29 Jun - 11:47:51 10° W 11:51:07 62° S 11:54:23 10° ESE daylight
29 Jun - 13:24:29 10° W 13:27:15 25° SSW 13:30:00 10° SSE daylight
30 Jun - 07:44:13 10° S 07:46:33 18° SE 07:48:53 10° E daylight
30 Jun - 09:19:21 10° WSW 09:22:33 52° SSE 09:25:47 10° E daylight
30 Jun - 10:55:38 10° W 10:58:55 69° S 11:02:12 10° E daylight
30 Jun - 12:32:08 10° W 12:35:10 34° SSW 12:38:12 10° SE daylight
01 Jul - 06:53:13 10° SSE 06:54:33 12° SE 06:55:54 10° ESE daylight
01 Jul - 08:27:18 10° SW 08:30:24 40° SSE 08:33:30 10° E daylight
01 Jul - 10:03:24 10° W 10:06:41 71° S 10:09:58 10° E daylight
01 Jul - 11:39:50 10° W 11:43:01 46° SSW 11:46:11 10° SE daylight
01 Jul - 13:16:59 10° WSW 13:18:56 15° SW 13:20:54 10° S daylight
02 Jul - 07:35:21 10° SW 07:38:15 29° SSE 07:41:10 10° E daylight
02 Jul - 09:11:10 10° WSW 09:14:26 66° S 09:17:43 10° E daylight
02 Jul - 10:47:34 10° W 10:50:49 58° SSW 10:54:03 10° ESE daylight
02 Jul - 12:24:17 10° W 12:26:53 22° SSW 12:29:31 10° SSE daylight
03 Jul - 06:43:38 10° SSW 06:46:10 21° SSE 06:48:41 10° E daylight
03 Jul - 08:18:59 10° WSW 08:22:13 56° SSE 08:25:27 10° E daylight
03 Jul - 09:55:18 10° W 09:58:35 67° S 10:01:51 10° ESE daylight
03 Jul - 11:31:50 10° W 11:34:47 31° SSW 11:37:44 10° SE daylight
04 Jul - 05:52:18 10° S 05:54:06 14° SE 05:55:54 10° ESE daylight
04 Jul - 07:26:51 10° SW 07:30:00 44° SSE 07:33:09 10° E daylight
04 Jul - 09:03:03 10° W 09:06:19 71° S 09:09:36 10° E daylight
04 Jul - 10:39:29 10° W 10:42:37 42° SSW 10:45:45 10° SE daylight
04 Jul - 12:16:54 10° WSW 12:18:29 13° SW 12:20:02 10° S daylight
05 Jul - 06:34:50 10° SW 06:37:48 33° SSE 06:40:48 10° E daylight
05 Jul - 08:10:46 10° WSW 08:14:02 68° S 08:17:19 10° E daylight
05 Jul - 09:47:10 10° W 09:50:24 54° SSW 09:53:37 10° ESE daylight
05 Jul - 11:24:00 10° W 11:26:25 19° SSW 11:28:50 10° SSE daylight
06 Jul - 05:42:59 10° SSW 05:45:39 23° SSE 05:48:20 10° E daylight
06 Jul - 07:18:31 10° WSW 07:21:46 60° S 07:25:01 10° E daylight
06 Jul - 08:54:52 10° W 08:58:08 64° S 09:01:24 10° ESE daylight
06 Jul - 10:31:27 10° W 10:34:17 27° SSW 10:37:08 10° SSE daylight
07 Jul - 04:51:26 10° S 04:53:33 16° SE 04:55:39 10° ESE daylight
07 Jul - 06:26:20 10° WSW 06:29:30 48° SSE 06:32:41 10° E daylight
07 Jul - 08:02:33 10° W 08:05:50 70° S 08:09:06 10° E daylight
07 Jul - 09:39:01 10° W 09:42:06 37° SSW 09:45:10 10° SE daylight
07 Jul - 11:16:56 10° WSW 11:17:54 11° SW 11:18:51 10° SSW daylight
